CW0609 Weather Reports


time (UTC)temp
F
wind
direction
speed
knots
gust
knots
rain 1hr
in
rain 24hr
in
rain mn
in
humidity
%
barometer
mb
20260510161555 81 163 0.9 3.5 0.00 0.00 0.00 39 1014.3
20260510160054 82 259 0.9 1.7 0.00 0.00 0.00 47 1014.4
20260510154554 80 100 0.9 1.7 0.00 0.00 0.00 47 1014.5
20260510153056 79 0 0.0 0.0 0.00 0.00 0.00 49 1014.6
20260510151556 77 132 0.9 1.7 0.00 0.00 0.00 52 1014.7
20260510150058 75 0 0.0 0.9 0.00 0.00 0.00 59 1014.9
20260510144555 74 0 0.0 0.9 0.00 0.00 0.00 59 1014.9
20260510143055 73 208 0.0 1.7 0.00 0.00 0.00 58 1014.7
20260510141557 71 0 0.0 0.9 0.00 0.00 0.00 61 1014.6
20260510140054 70 233 0.0 0.0 0.00 0.00 0.00 70 1014.5
20260510134556 68 131 0.0 1.7 0.00 0.00 0.00 77 1014.4
20260510133055 67 0 0.0 0.9 0.00 0.00 0.00 78 1014.5
20260510131555 64 133 0.0 0.0 0.00 0.00 0.00 81 1014.6
20260510130058 63 0 0.0 0.0 0.00 0.00 0.00 88 1014.2
20260510124609 61 0 0.0 0.0 0.00 0.00 0.00 90 1014.2
20260510123053 59 0 0.0 0.0 0.00 0.00 0.00 92 1014.2
20260510121555 56 0 0.0 0.0 0.00 0.00 0.00 93 1014.0
20260510120054 55 0 0.0 0.0 0.00 0.00 0.00 92 1013.9
20260510114601 53 0 0.0 0.0 0.00 0.00 0.00 93 1013.7
20260510113053 53 0 0.0 0.0 0.00 0.00 0.00 92 1013.6
20260510111558 52 0 0.0 0.0 0.00 0.00 0.00 92 1013.2
20260510110055 52 0 0.0 0.0 0.00 0.00 0.00 92 1013.2
20260510104559 52 0 0.0 0.0 0.00 0.00 0.00 92 1012.9
20260510103056 52 0 0.0 0.0 0.00 0.00 0.00 91 1012.7
20260510101557 53 0 0.0 0.0 0.00 0.00 0.00 91 1012.5
20260510094553 53 0 0.0 0.0 0.00 0.00 0.00 91 1011.9
20260510093101 54 0 0.0 0.0 0.00 0.00 0.00 91 1011.8
20260510091553 54 0 0.0 0.0 0.00 0.00 0.00 91 1011.8
20260510090054 55 0 0.0 0.0 0.00 0.00 0.00 91 1011.7
20260510084553 56 0 0.0 0.0 0.00 0.00 0.00 91 1011.6
20260510083103 56 0 0.0 0.0 0.00 0.00 0.00 91 1011.5
20260510081553 57 0 0.0 0.0 0.00 0.00 0.00 90 1011.5
20260510080058 57 0 0.0 0.0 0.00 0.00 0.00 90 1011.4
20260510074600 58 0 0.0 0.0 0.00 0.00 0.00 90 1011.3
20260510073107 58 0 0.0 0.0 0.00 0.00 0.00 90 1011.3
20260510071556 59 0 0.0 0.0 0.00 0.00 0.00 89 1011.2
20260510070057 59 0 0.0 0.0 0.00 0.00 0.00 89 1011.3
20260510064554 59 0 0.0 0.0 0.00 0.00 0.00 89 1011.3
20260510063057 59 0 0.0 0.9 0.00 0.00 0.00 89 1011.3
20260510061558 59 0 0.0 0.0 0.00 0.00 0.00 89 1011.4
20260510060055 59 0 0.0 0.0 0.00 0.00 0.00 89 1011.5
20260510054600 59 0 0.0 0.0 0.00 0.00 0.00 88 1011.5
20260510053053 59 0 0.0 0.0 0.00 0.00 0.00 88 1011.6
20260510051602 59 0 0.0 0.0 0.00 0.00 0.00 87 1011.6
20260510050057 59 0 0.0 0.0 0.00 0.00 0.00 87 1011.7
20260510044554 59 0 0.0 0.0 0.00 0.00 0.00 86 1011.6
20260510043059 59 0 0.0 0.0 0.00 0.00 0.00 86 1011.7
20260510041556 60 0 0.0 0.0 0.00 0.00 0.00 85 1011.6
20260510040058 60 0 0.0 0.0 0.00 0.00 0.00 85 1011.5
20260510034554 60 0 0.0 0.0 0.00 0.00 0.00 85 1011.4
20260510033122 60 0 0.0 0.0 0.00 0.00 0.00 84 1011.3
20260510031554 60 0 0.0 0.0 0.00 0.00 0.00 83 1011.3
20260510030054 61 0 0.0 0.0 0.00 0.00 0.00 83 1011.2
20260510024601 61 0 0.0 0.0 0.00 0.00 0.00 83 1011.1
20260510023056 61 0 0.0 0.0 0.00 0.00 0.00 82 1011.0
20260510021552 62 0 0.0 0.0 0.00 0.00 0.00 81 1010.9
20260510020058 62 0 0.0 0.0 0.00 0.00 0.00 81 1010.6
20260510014600 62 0 0.0 0.0 0.00 0.00 0.00 80 1010.3
20260510013055 63 0 0.0 0.0 0.00 0.00 0.00 80 1010.3
20260510011600 63 0 0.0 0.0 0.00 0.00 0.00 79 1010.1
20260510010058 64 0 0.0 0.0 0.00 0.00 0.00 78 1009.9
20260510004559 65 0 0.0 0.0 0.00 0.00 0.00 77 1009.8
20260510003105 66 0 0.0 0.0 0.00 0.00 0.00 75 1009.6
20260510001557 67 0 0.0 0.0 0.00 0.00 0.00 73 1009.5
20260510000057 69 0 0.0 0.0 0.00 0.00 0.00 72 1009.1
20260509234612 70 0 0.0 0.0 0.00 0.00 0.00 68 1009.0
20260509233104 71 0 0.0 3.5 0.00 0.00 0.00 67 1008.8
20260509231603 72 0 0.0 0.9 0.00 0.00 0.00 64 1008.9
20260509230103 72 0 0.9 4.3 0.00 0.00 0.00 61 1008.9
20260509224603 73 0 0.0 0.9 0.00 0.00 0.00 60 1008.8
20260509223104 73 0 0.0 0.9 0.00 0.00 0.00 60 1008.9
20260509221600 73 0 0.0 3.5 0.00 0.00 0.00 56 1008.8
20260509220057 73 0 0.0 0.9 0.00 0.00 0.00 56 1008.8
20260509214559 74 0 0.0 2.6 0.00 0.00 0.00 54 1008.7
20260509213058 75 103 0.9 2.6 0.00 0.00 0.00 55 1008.6
20260509211557 75 72 0.0 2.6 0.00 0.00 0.00 53 1008.5
20260509210059 75 75 0.9 5.2 0.00 0.00 0.00 53 1008.5
20260509204556 75 0 1.7 5.2 0.00 0.00 0.00 52 1008.5
20260509203058 74 330 0.0 2.6 0.00 0.00 0.00 58 1008.3
20260509201553 74 231 0.9 4.3 0.00 0.00 0.00 56 1008.6
20260509200056 74 79 0.9 2.6 0.00 0.00 0.00 55 1008.7
20260509194553 74 0 0.0 3.5 0.00 0.00 0.00 57 1008.9
20260509193058 74 120 0.9 1.7 0.00 0.00 0.00 55 1009.2
20260509191552 75 265 1.7 5.2 0.00 0.00 0.00 52 1009.3
20260509190055 74 97 0.0 4.3 0.00 0.00 0.00 56 1009.6
20260509184554 74 0 0.0 5.2 0.00 0.00 0.00 56 1009.8
20260509183054 76 301 0.9 4.3 0.00 0.00 0.00 51 1010.0
20260509181607 75 0 0.0 5.2 0.00 0.00 0.00 53 1009.9
20260509180115 75 126 0.9 3.5 0.00 0.00 0.00 51 1010.1
20260509174556 74 338 0.0 4.3 0.00 0.00 0.00 52 1010.2
20260509173110 75 0 0.9 4.3 0.00 0.00 0.00 50 1010.1
20260509171556 74 120 2.6 7.0 0.00 0.00 0.00 52 1010.2
20260509170055 73 98 0.0 7.8 0.00 0.00 0.00 55 1010.6
20260509164554 74 309 0.9 7.0 0.00 0.00 0.00 53 1011.0
20260509163055 73 144 1.7 5.2 0.00 0.00 0.00 52 1011.0